Location: *
(58.4167°N, 22.5000°E)
Time: 10:26:56
(UTC+00:00)

Cosmos 1953 Rocket - Pass Details

Date: 22 September 2019
Orbit: 604 x 635 km, 82.5° (Epoch: 18 October)

Event Time Altitude Azimuth Distance (km) Brightness Sun altitude
Rises 19:50:22 0° 344° (NNW) 2,950 8.1 -24.2°
Reaches altitude 10° 19:52:39 10° 340° (NNW) 2,035 7.1 -24.4°
Maximum altitude 19:57:03 55° 264° (W) 771 4.1 -24.8°
Enters shadow 19:57:36 51° 235° (SW) 804 4.1 -24.8°
